Location: Balaclava NSW 2575, Australia
(34.4510°S, 150.4953°E)
Time: 05:03:19
(UTC+10:00)

Transit 2A Rocket - All Passes

Search period start: 19 June 2021 00:00
Search period end: 29 June 2021 00:00
Orbit: 592 x 910 km, 66.7° (Epoch: 18 June)

Date Brightness Start Highest point End Pass type
(mag) Time Alt. Az. Time Alt. Az. Time Alt. Az.
19 Jun - 11:20:53 10° N 11:26:20 35° ENE 11:31:49 10° SE daylight
19 Jun - 13:03:26 10° WNW 13:08:55 34° SW 13:14:24 10° S daylight
19 Jun - 20:10:43 10° SSE 20:12:55 12° SE 20:15:02 10° ESE night (unlit)
19 Jun - 21:51:07 10° SSW 21:56:19 82° WNW 22:01:00 10° NNE night (unlit)
20 Jun - 10:39:40 10° NNE 10:43:57 20° ENE 10:48:17 10° ESE daylight
20 Jun - 12:20:09 10° NW 12:26:08 57° WSW 12:32:07 10° SSE daylight
20 Jun - 21:08:33 10° SSW 21:13:40 53° ESE 21:18:16 10° NE night (unlit)
20 Jun - 22:53:03 10° WSW 22:55:33 14° WNW 22:57:56 10° NW night (unlit)
21 Jun - 10:00:26 10° ENE 10:01:41 11° E 10:02:57 10° E daylight
21 Jun - 11:37:21 10° NNW 11:43:28 86° ENE 11:49:34 10° SSE daylight
21 Jun - 13:23:12 10° W 13:26:48 16° SW 13:30:24 10° SSW daylight
21 Jun - 20:26:18 10° S 20:30:50 29° SE 20:35:01 10° ENE night (unlit)
21 Jun - 22:09:02 10° SW 22:13:16 27° WNW 22:17:11 10° NNW night (unlit)
22 Jun - 10:55:04 10° N 11:00:54 51° ENE 11:06:46 10° SE daylight
22 Jun - 12:38:49 10° WNW 12:43:47 25° SW 12:48:43 10° S daylight
22 Jun - 19:44:27 10° S 19:47:53 17° SE 19:51:05 10° E visible
22 Jun - 21:25:54 10° SW 21:30:53 53° WNW 21:35:24 10° N night (unlit)
23 Jun - 10:13:20 10° NNE 10:18:28 29° ENE 10:23:37 10° SE daylight
23 Jun - 11:55:11 10° NW 12:00:55 41° WSW 12:06:36 10° SSE daylight
23 Jun - 19:04:27 10° SE 19:04:44 10° SE 19:05:01 10° SE visible
23 Jun - 20:43:09 10° SSW 20:48:20 79° ESE 20:53:00 10° NNE night (unlit)
24 Jun - 09:32:30 10° NE 09:36:08 16° ENE 09:39:46 10° ESE daylight
24 Jun - 11:12:05 10° NW 11:18:10 68° WSW 11:24:13 10° SSE daylight
24 Jun - 12:59:51 10° WSW 13:01:49 11° SW 13:03:47 10° SSW daylight
24 Jun - 20:00:43 10° SSW 20:05:37 42° ESE 20:10:05 10° NE visible
24 Jun - 21:44:27 10° WSW 21:47:42 18° WNW 21:50:46 10° NW night (unlit)
25 Jun - 10:29:28 10° NNW 10:35:32 72° ENE 10:41:35 10° SSE daylight
25 Jun - 12:14:31 10° W 12:18:42 19° SW 12:22:50 10° S daylight
25 Jun - 19:18:34 10° S 19:22:45 24° SE 19:26:37 10° ENE visible
25 Jun - 21:00:51 10° SW 21:05:23 34° WNW 21:09:33 10° N night (unlit)
26 Jun - 09:47:21 10° N 09:53:01 42° ENE 09:58:40 10° SE daylight
26 Jun - 11:30:27 10° WNW 11:35:44 30° SW 11:40:58 10° S daylight
26 Jun - 18:37:00 10° SSE 18:39:43 14° SE 18:42:19 10° E visible
26 Jun - 20:17:52 10° SSW 20:22:56 68° WNW 20:27:30 10° NNE visible
27 Jun - 09:05:52 10° NNE 09:10:36 24° ENE 09:15:20 10° SE daylight
27 Jun - 10:47:01 10° NW 10:52:54 49° WSW 10:58:44 10° SSE daylight
27 Jun - 19:35:14 10° SSW 19:40:20 63° ESE 19:44:56 10° NE visible
27 Jun - 21:20:51 10° W 21:22:04 11° WNW 21:23:16 10° WNW night (unlit)
28 Jun - 08:25:38 10° NE 08:28:18 13° ENE 08:30:58 10° ESE daylight
28 Jun - 10:04:05 10° NNW 10:10:12 82° WSW 10:16:17 10° SSE daylight
28 Jun - 11:50:42 10° WSW 11:53:40 14° SW 11:56:37 10° SSW daylight
28 Jun - 18:52:54 10° S 18:57:34 34° SE 19:01:50 10° ENE visible
28 Jun - 20:36:03 10° SW 20:39:50 22° WNW 20:43:22 10° NNW visible
